Weather History for Camarillo, CA

Change the Weather History Date:

Saturday, February 2, 2013

  Actual Average Record
Temperature  
Mean Temperature 63 °F 54 °F  
Max Temperature 75 °F 66 °F 85 °F (1954)
Min Temperature 51 °F 42 °F 34 °F (1949)
Degree Days  
Heating Degree Days 2 11  
Month to date heating degree days 6 22  
Since 1 July heating degree days 852 1041  
Cooling Degree Days 0 0  
Month to date cooling degree days 0 0  
Year to date cooling degree days 20 7  
Growing Degree Days 12 (Base 50)    
Moisture  
Dew Point 47 °F    
Average Humidity 58    
Maximum Humidity 83    
Minimum Humidity 33    
Precipitation  
Precipitation T in 0.08 in 2.02 in (1998)
Month to date precipitation T 0.16  
Year to date precipitation 1.07 3.63  
Since 1 July precipitation 3.78 7.87  
Sea Level Pressure  
Sea Level Pressure 30.19 in    
Wind  
Wind Speed 3 mph (NNW)    
Max Wind Speed 17 mph    
Max Gust Speed -    
Visibility 10 miles    
Events      
T = Trace of Precipitation, MM = Missing Value Source: NWS Daily Summary

Daily Weather History Graph

Daily Weather History Graph

Search for Another Location

Airport:

Trip Planner

Search our weather history database for the weather conditions in past years. The results will help you decide how hot, cold, wet, or windy it might be!

Date:

Astronomy

Feb. 02, 2013 Rise Set
Actual Time 6:52 AM PST 5:27 PM PST
Civil Twilight 6:26 AM PST 5:54 PM PST
Nautical Twilight 5:56 AM PST 6:24 PM PST
Astronomical Twilight 5:27 AM PST 6:53 PM PST
Moon No Moon Rise 10:27 AM PST (2/2)
Length of Visible Light 11h 27m
Length of Day
10h 35m
Waning Gibbous, 58% of the Moon is Illuminated
Feb 2
Waning Gibbous
Feb 3
Last Quarter
Feb 9
New
Feb 17
First Quarter
Feb 25
Full

Hourly Weather History & Observations

Time (PST) Temp. Dew Point Humidity Pressure Visibility Wind Dir Wind Speed Gust Speed Precip Events Conditions
12:55 AM 52.0 °F 46.0 °F 80% 30.18 in 10.0 mi Calm Calm - N/A   Clear
1:55 AM 53.1 °F 46.0 °F 77% 30.18 in 10.0 mi Calm Calm - N/A   Clear
2:55 AM 53.1 °F 46.0 °F 77% 30.19 in 10.0 mi South 5.8 mph - N/A   Clear
3:55 AM 54.0 °F 45.0 °F 72% 30.18 in 10.0 mi East 5.8 mph - N/A   Clear
4:55 AM 53.1 °F 46.0 °F 77% 30.19 in 10.0 mi Calm Calm - N/A   Clear
5:55 AM 53.1 °F 46.0 °F 77% 30.19 in 10.0 mi ENE 4.6 mph - N/A   Clear
6:55 AM 53.1 °F 45.0 °F 74% 30.19 in 10.0 mi West 3.5 mph - N/A   Clear
7:55 AM 55.9 °F 44.1 °F 64% 30.20 in 10.0 mi WNW 4.6 mph - N/A   Clear
8:55 AM 59.0 °F 46.9 °F 64% 30.22 in 10.0 mi Calm Calm - N/A   Clear
9:55 AM 66.0 °F 48.9 °F 54% 30.21 in 10.0 mi Calm Calm - N/A   Clear
10:55 AM 73.9 °F 43.0 °F 33% 30.22 in 10.0 mi SW 4.6 mph - N/A   Clear
11:55 AM 66.0 °F 54.0 °F 65% 30.19 in 10.0 mi West 6.9 mph - N/A   Clear
12:55 PM 68.0 °F 48.9 °F 50% 30.17 in 10.0 mi West 4.6 mph - N/A   Clear
1:55 PM 69.1 °F 50.0 °F 51% 30.15 in 10.0 mi SSE 3.5 mph - N/A   Mostly Cloudy
2:55 PM 68.0 °F 48.9 °F 50% 30.15 in 10.0 mi Calm Calm - N/A   Overcast
3:55 PM 69.1 °F 46.9 °F 45% 30.16 in 10.0 mi Calm Calm - N/A   Overcast
4:55 PM 66.0 °F 50.0 °F 56% 30.18 in 10.0 mi Calm Calm - N/A   Overcast
5:55 PM 64.0 °F 52.0 °F 65% 30.19 in 10.0 mi North 4.6 mph - N/A   Overcast
6:55 PM 66.9 °F 46.9 °F 49% 30.20 in 10.0 mi North 12.7 mph - 0.00 in   Overcast
7:55 PM 64.9 °F 46.0 °F 50% 30.20 in 10.0 mi ENE 4.6 mph - N/A   Overcast
8:55 PM 64.9 °F 46.9 °F 52% 30.19 in 10.0 mi ENE 9.2 mph - N/A   Scattered Clouds
9:55 PM 64.0 °F 46.0 °F 52% 30.18 in 10.0 mi NNE 4.6 mph - N/A   Clear
10:55 PM 61.0 °F 48.9 °F 64% 30.18 in 10.0 mi Calm Calm - N/A   Clear
11:55 PM 60.1 °F 50.0 °F 69% 30.17 in 10.0 mi WNW 6.9 mph - N/A   Clear